DELTA 1 DEB, 10221

Orbit data source: Space-Track

DELTA 1 DEB, 10221 is space debris in LEO originally from a launch on Thu, 14 Jul 1977 UTC launched from the Air Force Eastern Test Range (AFETR). Debris objects in space refer to the collection of defunct objects orbiting the Earth. Examples of debris include non-operational satellites, rocket bodies, and fragments generated from explosions, collisions, or faulty payload assembly.

Loading next visibility...
Identifier
10221, 1977-065AY
Orbit
LEO
Country
Flag of USUS
Related business
Manufacturer
Unknown
Mission
Spacecraft
Bus & Motor
Unknown
Mass
Unknown
Launch date (UTC)
1977-07-14 (48 years ago)
Launch vehicle
Unknown
Launch site
Air Force Eastern Test Range (AFETR)
Object type
Payload
Rocket body
Debris
Shape & HBR
Unknown shape, 0.1 m
Radar Cross Section
Small (<0.1 m²)

Expand to show TLE details & history
Last TLE update: 15 hours ago

TLE from 15 hours ago
0 DELTA 1 DEB
1 10221U 77065AY  25297.67467678  .00020124  00000-0  18508-2 0  9990
2 10221  29.0296 291.4414 0311236 243.5769 113.2564 14.63281787438041
Epoch: 2025-10-24T16:11Z
TLE epoch observation values (Epoch: 2025-10-24T16:11:32.073Z)
Latitude
-0.00004°
Longitude
15.24151°
Altitude
773.357 km
Speed
7.421 km/s
True Right ascension
19h 25m 45s
True Declination
0° 00' 00"
Sunlit
Object was in daylight at epoch
Visualization orbit readout
Latitude
Unknown
Longitude
Unknown
Altitude
Unknown
Speed
Unknown
Apparent Right ascension
Unknown
Apparent Declination
Unknown
Sunlit
N/A
Visualization observer readout
Local Sidereal Time
02:03:26
Azimuth
Unknown
Elevation
Unknown
Doppler factor
Unknown
Orbital elements
Apogee altitude
906.525 km
Perigee altitude
466.762 km
Semi-major axis
7,064.78 km
Eccentricity
0.03112
Inclination
29.0296°
RAAN
291.4414°
Arg. of periapsis
243.5769°
True anomaly
116.48181°
Mean anomaly
113.2564°
Eccentric anomaly
114.87422°
Mean motion
3.65507 °/min
Orbital period
98.49 mins
BSTAR
0.0018508
Loading maneuver chart data...
Computing Atmospheric mass density...

Documentation

Showing up to 5 results
|